Vejrstation Sortsø Strand
Vejrstation Sortsø Strands historiske vejrdata
 
Daily Summary for November 28, 2022 Units:  Metric    English   Both
Daily Weekly Monthly Yearly Custom
  Current: High: Low: Average:
Temperature: 6.1 °C 6.4 °C 6.1 °C 6.3 °C
Dew Point: 3.6 °C 3.9 °C 3.6 °C 3.8 °C
Humidity: 84% 84% 83% 84%
Wind Speed: 41km/h 41km/h 26km/h 32.7km/h
Wind Gust: 33km/h 33km/h - -
WindESE - - SE
Pressure: 1017.9 hPa 1018.5 hPa 1017.9 hPa -
Precipitation: 0.00 mm      
Historical Graphs
 
 
Tabular Data for November 28, 2022
Time Temperature Dew Point Pressure Wind Wind Speed Wind Gust Humidity Rainfall Rate (Hourly) solar
00:04 6.2 °C 3.6 °C 1018.5 hPa SE 31 km/h 23 km/h 83% 0.00 mm 0.00 W/m2
00:09 6.3 °C 3.6 °C 1018.4 hPa SE 32 km/h 24 km/h 83% 0.00 mm 0.00 W/m2
00:14 6.3 °C 3.8 °C 1018.4 hPa SE 34 km/h 29 km/h 84% 0.00 mm 0.00 W/m2
00:19 6.3 °C 3.8 °C 1018.4 hPa SE 32 km/h 27 km/h 84% 0.00 mm 0.00 W/m2
00:24 6.3 °C 3.8 °C 1018.4 hPa SE 32 km/h 26 km/h 84% 0.00 mm 0.00 W/m2
00:29 6.4 °C 3.9 °C 1018.3 hPa SE 32 km/h 30 km/h 84% 0.00 mm 0.00 W/m2
00:34 6.4 °C 3.9 °C 1018.3 hPa SE 32 km/h 28 km/h 84% 0.00 mm 0.00 W/m2
00:39 6.4 °C 3.9 °C 1018.3 hPa SE 34 km/h 29 km/h 84% 0.00 mm 0.00 W/m2
00:44 6.4 °C 3.9 °C 1018.3 hPa SE 32 km/h 24 km/h 84% 0.00 mm 0.00 W/m2
00:49 6.4 °C 3.9 °C 1018.2 hPa SE 34 km/h 26 km/h 84% 0.00 mm 0.00 W/m2
00:54 6.3 °C 3.8 °C 1018.3 hPa SE 33 km/h 24 km/h 84% 0.00 mm 0.00 W/m2
00:59 6.3 °C 3.8 °C 1018.4 hPa SE 26 km/h 21 km/h 84% 0.00 mm 0.00 W/m2
01:04 6.3 °C 3.8 °C 1018.4 hPa SE 32 km/h 22 km/h 84% 0.00 mm 0.00 W/m2
01:09 6.3 °C 3.6 °C 1018.3 hPa SE 26 km/h 24 km/h 83% 0.00 mm 0.00 W/m2
01:14 6.3 °C 3.8 °C 1018.3 hPa ESE 31 km/h 26 km/h 84% 0.00 mm 0.00 W/m2
01:19 6.3 °C 3.8 °C 1018.2 hPa SE 35 km/h 31 km/h 84% 0.00 mm 0.00 W/m2
01:24 6.2 °C 3.7 °C 1018.1 hPa SE 33 km/h 29 km/h 84% 0.00 mm 0.00 W/m2
01:29 6.2 °C 3.7 °C 1018.1 hPa ESE 34 km/h 29 km/h 84% 0.00 mm 0.00 W/m2
01:34 6.2 °C 3.7 °C 1018.0 hPa ESE 35 km/h 30 km/h 84% 0.00 mm 0.00 W/m2
01:39 6.1 °C 3.6 °C 1018.0 hPa ESE 35 km/h 32 km/h 84% 0.00 mm 0.00 W/m2
01:44 6.1 °C 3.6 °C 1017.9 hPa ESE 41 km/h 33 km/h 84% 0.00 mm 0.00 W/m2
Vejrstation Sortsø Strand
Compliments of Weather Underground - 1 mb

© 2006-2022 strandvejr.dk